Regional Weather Roundup
Issued by NWS Binghamton, NY

Home | Current Version | Previous Version | Text Only | Print | Product List | Glossary On
Versions: 1 2 3 4 5 6 7 8 9 10 11 12 13 14 15 16 17 18 19 20 21 22 23 24 25 26 27
000
ASUS41 KBGM 231810
RWRBGM
RWRBGM
BINGHAMTON REGIONAL WEATHER ROUNDUP
NATIONAL WEATHER SERVICE BINGHAMTON NY
200 PM EDT WED APR 23 2014

Note: "fair" indicates few or no clouds below 12,000 feet with no
significant weather and/or obstructions to visibility.

* = Station(s) that does not report precipitation, such as rain,
snow, etc, also no thunder or fog.

!NYZ009-015>018-022>025-036-037-044>046-055>057-062-231900
...CENTRAL NEW YORK...

CITY           SKY/WX    TMP DP  RH WIND       PRES   REMARKS
BINGHAMTON     CLOUDY    38  33  82 NW10G24   29.75  WCI  31
CORTLAND       CLOUDY    37  36  93 NW7G17    29.81R WCI  32
DANSVILLE      CLOUDY    40  34  79 NW17      29.90R WCI  31
ELMIRA         CLOUDY    43  32  65 VRB6G23   29.83
ITHACA         CLOUDY    37  35  92 NW14G21   29.83R WCI  28
HAMILTON       CLOUDY    41  34  75 NW12G20   29.76
HORNELL        LGT RAIN  37  32  81 NW17      29.90R WCI  28
MONTICELLO     CLOUDY    46  36  66 NW21G32   29.67R
NORWICH        CLOUDY    41  32  70 NW12G20   29.76R
ONEONTA        CLOUDY    39  32  75 NW9G18    29.70R WCI  33
PENN YAN       CLOUDY    40  34  79 NW13G23   29.84R WCI  32
ROME           CLOUDY    42  34  73 W20       29.76R
SIDNEY         CLOUDY    43  37  81 W12G20    29.75R
SYRACUSE       CLOUDY    43  33  68 W15G22    29.81R
$$

!PAZ038>040-043-044-047-048-072-231900
...NORTHEAST PENNSYLVANIA...

CITY           SKY/WX    TMP DP  RH WIND       PRES   REMARKS
SCRANTON       CLOUDY    47  35  63 NW17G28   29.74R
TOWANDA*       CLOUDY    45  34  65 NW9G21    29.82R
$$
&&
KEY
WCI = WIND CHILL INDEX
VSB = VISIBILITY
HX  = HEAT INDEX
$$



USA.gov is the U.S. government's official web portal to all federal, state and local government web resources and services.